G7NPW-1 Weather Reports


time (UTC)temp
C
wind
direction
speed
KPH
gust
KPH
rain 1hr
cm
rain 24hr
cm
rain mn
cm
humidity
%
barometer
mb
20260905192004 18 270 20.9 20.9 0.00 0.00 0.00 52 1024.0
20260905191004 18 270 20.9 20.9 0.00 0.00 0.00 52 1024.0
20260905190504 18 270 20.9 20.9 0.00 0.00 0.00 52 1024.0
20260905190004 18 270 20.9 20.9 0.00 0.00 0.00 52 1024.0
20260905185004 18 270 20.9 20.9 0.00 0.00 0.00 52 1024.0
20260905184503 18 270 20.9 20.9 0.00 0.00 0.00 52 1024.0
20260905184004 18 270 20.9 20.9 0.00 0.00 0.00 52 1024.0
20260905183504 18 270 20.9 20.9 0.00 0.00 0.00 52 1024.0
20260905182504 18 270 20.9 20.9 0.00 0.00 0.00 52 1024.0
20260905181504 18 270 20.9 20.9 0.00 0.00 0.00 52 1024.0
20260905181004 18 270 20.9 20.9 0.00 0.00 0.00 52 1024.0
20260905175004 18 270 20.9 20.9 0.00 0.00 0.00 52 1024.0
20260905174504 18 270 20.9 20.9 0.00 0.00 0.00 52 1024.0
20260905174005 18 270 20.9 20.9 0.00 0.00 0.00 52 1024.0
20260905172004 18 270 20.9 20.9 0.00 0.00 0.00 52 1024.0
20260905171503 18 270 20.9 20.9 0.00 0.00 0.00 52 1024.0
20260905170504 18 270 20.9 20.9 0.00 0.00 0.00 52 1024.0
20260905164504 18 270 20.9 20.9 0.00 0.00 0.00 52 1024.0
20260905163504 18 270 20.9 20.9 0.00 0.00 0.00 52 1024.0
20260905163004 18 270 20.9 20.9 0.00 0.00 0.00 52 1024.0
20260905161004 18 270 20.9 20.9 0.00 0.00 0.00 52 1024.0
20260905153503 18 270 20.9 20.9 0.00 0.00 0.00 52 1024.0
20260905153003 18 270 20.9 20.9 0.00 0.00 0.00 52 1024.0
20260905151504 18 270 20.9 20.9 0.00 0.00 0.00 52 1024.0
20260905151004 18 270 20.9 20.9 0.00 0.00 0.00 52 1024.0
20260905150504 18 270 20.9 22.5 0.00 0.00 0.00 52 1024.0
20260905144504 21 260 22.5 22.5 0.00 0.00 0.00 49 1023.0
20260905144004 21 260 22.5 22.5 0.00 0.00 0.00 49 1023.0
20260905142004 21 260 22.5 22.5 0.00 0.00 0.00 49 1023.0
20260905141004 21 260 22.5 22.5 0.00 0.00 0.00 49 1023.0
20260905140504 21 260 22.5 22.5 0.00 0.00 0.00 49 1023.0
20260905140004 21 260 22.5 22.5 0.00 0.00 0.00 49 1023.0
20260905134004 18 290 16.1 16.1 0.00 0.00 0.00 52 1023.0
20260905133505 18 290 16.1 16.1 0.00 0.00 0.00 52 1023.0
20260905132504 18 290 16.1 16.1 0.00 0.00 0.00 52 1023.0
20260905132004 18 290 16.1 16.1 0.00 0.00 0.00 52 1023.0
20260905124504 18 270 24.1 24.1 0.00 0.00 0.00 52 1023.0
20260905122504 18 270 24.1 24.1 0.00 0.00 0.00 52 1023.0
20260905122004 18 270 24.1 24.1 0.00 0.00 0.00 52 1023.0
20260905120504 18 270 24.1 25.7 0.00 0.00 0.00 52 1023.0
20260905115504 18 270 25.7 25.7 0.00 0.00 0.00 52 1023.0
20260905114004 18 270 25.7 25.7 0.00 0.00 0.00 52 1023.0
20260905113504 18 270 25.7 25.7 0.00 0.00 0.00 52 1023.0
20260905113005 18 270 25.7 25.7 0.00 0.00 0.00 52 1023.0
20260905112503 18 270 25.7 25.7 0.00 0.00 0.00 52 1023.0
20260905111004 18 270 25.7 25.7 0.00 0.00 0.00 52 1023.0
20260905110004 18 270 25.7 25.7 0.00 0.00 0.00 52 1023.0
20260905105003 17 280 22.5 22.5 0.00 0.00 0.00 63 1022.0
20260905104504 17 280 22.5 22.5 0.00 0.00 0.00 63 1022.0
20260905103504 17 280 22.5 22.5 0.00 0.00 0.00 63 1022.0
20260905101504 17 280 22.5 22.5 0.00 0.00 0.00 63 1022.0
20260905101004 17 280 22.5 22.5 0.00 0.00 0.00 63 1022.0
20260905100504 17 280 22.5 24.1 0.00 0.00 0.00 63 1022.0
20260905095504 16 270 24.1 24.1 0.00 0.00 0.00 67 1022.0
20260905094504 16 270 24.1 24.1 0.00 0.00 0.00 67 1022.0
20260905094004 16 270 24.1 24.1 0.00 0.00 0.00 67 1022.0
20260905093004 16 270 24.1 24.1 0.00 0.00 0.00 67 1022.0
20260905092504 16 270 24.1 24.1 0.00 0.00 0.00 67 1022.0
20260905091004 16 270 24.1 24.1 0.00 0.00 0.00 67 1022.0
20260905090004 16 270 24.1 24.1 0.00 0.00 0.00 67 1022.0
20260905085504 15 270 22.5 22.5 0.00 0.00 0.00 72 1021.0
20260905085004 15 270 22.5 22.5 0.00 0.00 0.00 72 1021.0
20260905083504 15 270 22.5 22.5 0.00 0.00 0.00 72 1021.0
20260905081504 15 270 22.5 22.5 0.00 0.00 0.00 72 1021.0
20260905081004 15 270 22.5 22.5 0.00 0.00 0.00 72 1021.0
20260905080504 15 270 22.5 22.5 0.00 0.00 0.00 72 1021.0
20260905073005 13 260 22.5 22.5 0.00 0.00 0.00 76 1020.0
20260905072004 13 260 22.5 22.5 0.00 0.00 0.00 76 1020.0
20260905071004 13 260 22.5 22.5 0.00 0.00 0.00 76 1020.0
20260905070505 13 260 22.5 22.5 0.00 0.00 0.00 76 1020.0
20260905063504 15 230 19.3 19.3 0.00 0.00 0.00 76 1015.9
20260905063004 15 230 19.3 19.3 0.00 0.00 0.00 76 1015.9
20260905062503 15 230 19.3 19.3 0.00 0.00 0.00 76 1015.9
20260904210504 15 230 19.3 24.1 0.00 0.00 0.00 76 1015.9
20260904210004 15 230 19.3 24.1 0.00 0.00 0.00 76 1015.9
20260904205504 16 240 24.1 24.1 0.00 0.00 0.00 72 1015.9
20260904204004 16 240 24.1 24.1 0.00 0.00 0.00 72 1015.9
20260904201504 16 240 24.1 24.1 0.00 0.00 0.00 72 1015.9
20260904200504 16 240 24.1 29.0 0.00 0.00 0.00 72 1015.9
20260904200004 16 240 24.1 29.0 0.00 0.00 0.00 72 1015.9
20260904195004 17 250 29.0 29.0 0.00 0.00 0.00 63 1014.9
20260904193504 17 250 29.0 29.0 0.00 0.00 0.00 63 1014.9
20260904193004 17 250 29.0 29.0 0.00 0.00 0.00 63 1014.9
20260904192503 17 250 29.0 29.0 0.00 0.00 0.00 63 1014.9